User: anonymous   Login
Location: Helsinki
(60.1699°N, 24.9384°E)
Time: 21:30:51
(UTC+03:00)
Language:

S-56A Canister/Altair - Orbit

View from above orbital plane
View from above orbital plane
View from above satellite
View from above satellite

Ground track
Ground track

The orbit data is extracted from the following two-line orbital elements,

1 00082U 61004B   22274.25485902  .00000122  00000-0  13948-3 0  9996
2 00082  38.8566 343.7214 1169788 157.0899 208.6631 12.26025518910391
Epoch (UTC): 01 October 2022 06:06:59
Eccentricity: 0.1169788
inclination: 38.8566°
perigee height: 637 km
apogee height: 2496 km
right ascension of ascending node: 343.7214°
argument of perigee: 157.0899°
revolutions per day: 12.26025518
mean anomaly at epoch: 208.6631°
orbit number at epoch: 91039

The dashed part of the orbit path shows where the satellite is in the earth's shadow,  

DLR